| time (UTC) | temp C | wind direction | speed KPH | gust KPH | rain 1hr cm | rain 24hr cm | rain mn cm | humidity % | barometer mb |
| 20260902211005 | 15 | 214 | 3.2 | 14.5 | 0.18 | 1.19 | 1.19 | 100 | 1006.0 |
| 20260902210505 | 15 | 174 | 3.2 | 12.9 | 0.18 | 1.19 | 1.19 | 100 | 1006.0 |
| 20260902210005 | 15 | 199 | 8.0 | 12.9 | 0.20 | 1.19 | 1.19 | 100 | 1006.0 |
| 20260902205005 | 15 | 198 | 8.0 | 11.3 | 0.20 | 1.17 | 1.17 | 100 | 1005.8 |
| 20260902204505 | 15 | 217 | 6.4 | 11.3 | 0.18 | 1.14 | 1.14 | 100 | 1005.8 |
| 20260902203005 | 14 | 221 | 6.4 | 16.1 | 0.18 | 1.09 | 1.09 | 100 | 1005.8 |
| 20260902202005 | 15 | 225 | 3.2 | 14.5 | 0.15 | 1.04 | 1.04 | 100 | 1005.7 |
| 20260902201504 | 14 | 192 | 3.2 | 14.5 | 0.18 | 1.04 | 1.04 | 100 | 1005.7 |
| 20260902201005 | 14 | 185 | 4.8 | 14.5 | 0.20 | 1.02 | 1.02 | 100 | 1005.6 |
| 20260902200504 | 14 | 200 | 8.0 | 14.5 | 0.25 | 1.02 | 1.02 | 100 | 1005.6 |
| 20260902200005 | 14 | 217 | 8.0 | 14.5 | 0.25 | 0.99 | 0.99 | 100 | 1005.6 |
| 20260902195005 | 14 | 211 | 9.7 | 17.7 | 0.25 | 0.97 | 0.97 | 100 | 1005.6 |
| 20260902194504 | 14 | 148 | 6.4 | 17.7 | 0.28 | 0.97 | 0.97 | 100 | 1005.6 |
| 20260902194004 | 14 | 194 | 8.0 | 17.7 | 0.25 | 0.94 | 0.94 | 100 | 1005.5 |
| 20260902193504 | 14 | 188 | 4.8 | 19.3 | 0.30 | 0.94 | 0.94 | 99 | 1005.5 |
| 20260902193005 | 14 | 190 | 11.3 | 19.3 | 0.30 | 0.91 | 0.91 | 98 | 1005.5 |
| 20260902192004 | 14 | 179 | 9.7 | 17.7 | 0.30 | 0.89 | 0.89 | 97 | 1005.5 |
| 20260902191504 | 14 | 198 | 9.7 | 19.3 | 0.30 | 0.86 | 0.86 | 96 | 1005.5 |
| 20260902191004 | 14 | 204 | 6.4 | 19.3 | 0.28 | 0.81 | 0.81 | 95 | 1005.7 |
| 20260902190504 | 14 | 157 | 6.4 | 19.3 | 0.25 | 0.76 | 0.76 | 95 | 1005.7 |
| 20260902190004 | 14 | 214 | 9.7 | 19.3 | 0.25 | 0.74 | 0.74 | 94 | 1005.7 |
| 20260902185505 | 14 | 218 | 11.3 | 11.3 | 0.28 | 0.71 | 0.71 | 95 | 1005.7 |
| 20260902185004 | 13 | 188 | 4.8 | 12.9 | 0.36 | 0.71 | 0.71 | 94 | 1005.7 |
| 20260902184504 | 13 | 197 | 4.8 | 12.9 | 0.36 | 0.69 | 0.69 | 94 | 1005.7 |
| 20260902184004 | 13 | 192 | 3.2 | 14.5 | 0.41 | 0.69 | 0.69 | 93 | 1005.6 |
| 20260902183504 | 13 | 213 | 8.0 | 17.7 | 0.38 | 0.64 | 0.64 | 92 | 1005.6 |
| 20260902183004 | 13 | 219 | 12.9 | 17.7 | 0.38 | 0.61 | 0.61 | 92 | 1005.6 |
| 20260902182004 | 13 | 153 | 8.0 | 17.7 | 0.38 | 0.58 | 0.58 | 92 | 1005.8 |
| 20260902181504 | 13 | 202 | 6.4 | 14.5 | 0.36 | 0.56 | 0.56 | 92 | 1005.8 |
| 20260902181004 | 14 | 190 | 4.8 | 11.3 | 0.33 | 0.53 | 0.53 | 92 | 1005.9 |
| 20260902180504 | 14 | 192 | 4.8 | 11.3 | 0.33 | 0.51 | 0.51 | 91 | 1005.9 |
| 20260902180006 | 14 | 209 | 6.4 | 11.3 | 0.30 | 0.48 | 0.48 | 91 | 1005.9 |
| 20260902175004 | 14 | 200 | 3.2 | 8.0 | 0.23 | 0.36 | 0.36 | 90 | 1005.7 |
| 20260902174504 | 14 | 196 | 0.0 | 8.0 | 0.20 | 0.33 | 0.33 | 89 | 1005.7 |
| 20260902174004 | 14 | 210 | 0.0 | 8.0 | 0.18 | 0.28 | 0.28 | 89 | 1006.1 |
| 20260902172503 | 14 | 186 | 3.2 | 11.3 | 0.15 | 0.20 | 0.20 | 89 | 1006.1 |
| 20260902172004 | 14 | 139 | 4.8 | 12.9 | 0.15 | 0.20 | 0.20 | 89 | 1006.1 |
| 20260902171503 | 14 | 186 | 4.8 | 12.9 | 0.18 | 0.20 | 0.20 | 88 | 1006.1 |
| 20260902171003 | 14 | 234 | 9.7 | 14.5 | 0.18 | 0.20 | 0.20 | 88 | 1006.2 |
| 20260902170504 | 14 | 230 | 1.6 | 14.5 | 0.18 | 0.18 | 0.18 | 88 | 1006.2 |
| 20260902170004 | 14 | 213 | 8.0 | 14.5 | 0.18 | 0.18 | 0.18 | 88 | 1006.2 |
| 20260902165504 | 14 | 197 | 1.6 | 11.3 | 0.15 | 0.15 | 0.15 | 87 | 1006.3 |
| 20260902164003 | 14 | 194 | 8.0 | 12.9 | 0.10 | 0.10 | 0.10 | 86 | 1006.3 |
| 20260902163504 | 15 | 207 | 4.8 | 9.7 | 0.10 | 0.10 | 0.10 | 86 | 1006.3 |
| 20260902162503 | 15 | 218 | 0.0 | 11.3 | 0.05 | 0.05 | 0.05 | 85 | 1006.2 |
| 20260902162004 | 15 | 246 | 3.2 | 11.3 | 0.05 | 0.05 | 0.05 | 84 | 1006.2 |
| 20260902161003 | 15 | 214 | 9.7 | 12.9 | 0.03 | 0.03 | 0.03 | 83 | 1006.1 |
| 20260902160503 | 15 | 211 | 4.8 | 12.9 | 0.00 | 0.00 | 0.00 | 83 | 1006.1 |
| 20260902155503 | 15 | 189 | 3.2 | 8.0 | 0.00 | 0.00 | 0.00 | 83 | 1006.1 |
| 20260902155004 | 15 | 202 | 6.4 | 8.0 | 0.00 | 0.00 | 0.00 | 83 | 1006.1 |
| 20260902154503 | 15 | 185 | 1.6 | 6.4 | 0.00 | 0.00 | 0.00 | 83 | 1006.1 |
| 20260902153503 | 15 | 176 | 4.8 | 6.4 | 0.00 | 0.00 | 0.00 | 83 | 1006.2 |
| 20260902153003 | 15 | 178 | 0.0 | 6.4 | 0.00 | 0.00 | 0.00 | 83 | 1006.2 |
| 20260902152503 | 15 | 154 | 0.0 | 4.8 | 0.00 | 0.00 | 0.00 | 83 | 1006.3 |
| 20260902152003 | 15 | 148 | 1.6 | 6.4 | 0.00 | 0.00 | 0.00 | 82 | 1006.3 |
| 20260902151503 | 15 | 153 | 1.6 | 6.4 | 0.00 | 0.00 | 0.00 | 82 | 1006.3 |
| 20260902151003 | 15 | 154 | 3.2 | 4.8 | 0.00 | 0.00 | 0.00 | 82 | 1006.4 |
| 20260902150503 | 15 | 186 | 1.6 | 8.0 | 0.00 | 0.00 | 0.00 | 83 | 1006.4 |
| 20260902150003 | 15 | 188 | 1.6 | 8.0 | 0.00 | 0.00 | 0.00 | 83 | 1006.4 |
| 20260902145503 | 15 | 176 | 0.0 | 3.2 | 0.00 | 0.00 | 0.00 | 83 | 1006.6 |
| 20260902145003 | 15 | 168 | 0.0 | 6.4 | 0.00 | 0.00 | 0.00 | 83 | 1006.6 |
| 20260902144503 | 15 | 207 | 0.0 | 6.4 | 0.00 | 0.00 | 0.00 | 83 | 1006.6 |
| 20260902143503 | 15 | 156 | 3.2 | 8.0 | 0.00 | 0.00 | 0.00 | 83 | 1006.7 |
| 20260902143003 | 15 | 161 | 3.2 | 6.4 | 0.00 | 0.00 | 0.00 | 83 | 1006.7 |
| 20260902142003 | 15 | 174 | 4.8 | 9.7 | 0.00 | 0.00 | 0.00 | 82 | 1006.9 |
| 20260902141502 | 15 | 181 | 4.8 | 9.7 | 0.00 | 0.00 | 0.00 | 81 | 1006.9 |
| 20260902141002 | 15 | 196 | 4.8 | 9.7 | 0.00 | 0.00 | 0.00 | 81 | 1007.0 |
| 20260902140502 | 15 | 210 | 1.6 | 9.7 | 0.00 | 0.00 | 0.00 | 80 | 1007.0 |
| 20260902135502 | 15 | 172 | 1.6 | 3.2 | 0.00 | 0.00 | 0.00 | 79 | 1007.0 |
| 20260902135003 | 15 | 174 | 0.0 | 8.0 | 0.00 | 0.00 | 0.00 | 79 | 1007.0 |
| 20260902134503 | 15 | 179 | 0.0 | 8.0 | 0.00 | 0.00 | 0.00 | 79 | 1007.0 |
| 20260902134002 | 15 | 182 | 0.0 | 6.4 | 0.00 | 0.00 | 0.00 | 79 | 1007.3 |
| 20260902133502 | 15 | 180 | 0.0 | 6.4 | 0.00 | 0.00 | 0.00 | 79 | 1007.3 |
| 20260902132502 | 15 | 202 | 3.2 | 9.7 | 0.00 | 0.00 | 0.00 | 79 | 1007.4 |
| 20260902132002 | 15 | 165 | 3.2 | 11.3 | 0.00 | 0.00 | 0.00 | 79 | 1007.4 |
| 20260902131502 | 15 | 168 | 3.2 | 11.3 | 0.00 | 0.00 | 0.00 | 79 | 1007.4 |
| 20260902131002 | 15 | 184 | 6.4 | 9.7 | 0.00 | 0.00 | 0.00 | 79 | 1007.6 |
| 20260902130002 | 15 | 181 | 4.8 | 11.3 | 0.00 | 0.00 | 0.00 | 79 | 1007.6 |
| 20260902125502 | 15 | 197 | 3.2 | 11.3 | 0.00 | 0.00 | 0.00 | 79 | 1007.9 |
| 20260902124502 | 15 | 203 | 9.7 | 11.3 | 0.00 | 0.00 | 0.00 | 79 | 1007.9 |
| 20260902123001 | 15 | 226 | 6.4 | 6.4 | 0.00 | 0.00 | 0.00 | 80 | 1008.0 |
| 20260902122502 | 15 | 215 | 3.2 | 8.0 | 0.00 | 0.00 | 0.00 | 80 | 1008.2 |
| 20260902122001 | 15 | 194 | 3.2 | 8.0 | 0.00 | 0.00 | 0.00 | 80 | 1008.2 |
| 20260902121001 | 15 | 203 | 1.6 | 4.8 | 0.00 | 0.00 | 0.00 | 80 | 1008.4 |
| 20260902120501 | 15 | 180 | 0.0 | 3.2 | 0.00 | 0.00 | 0.00 | 80 | 1008.4 |
| 20260902120002 | 15 | 180 | 1.6 | 3.2 | 0.00 | 0.00 | 0.00 | 80 | 1008.4 |
| 20260902115501 | 15 | 173 | 3.2 | 4.8 | 0.00 | 0.00 | 0.00 | 80 | 1008.6 |
| 20260902114501 | 15 | 136 | 1.6 | 6.4 | 0.00 | 0.00 | 0.00 | 79 | 1008.6 |
| 20260902114001 | 15 | 155 | 3.2 | 4.8 | 0.00 | 0.00 | 0.00 | 79 | 1008.8 |
| 20260902113501 | 15 | 190 | 1.6 | 6.4 | 0.00 | 0.00 | 0.00 | 79 | 1008.8 |
| 20260902113001 | 15 | 205 | 3.2 | 6.4 | 0.00 | 0.00 | 0.00 | 79 | 1008.8 |
| 20260902112501 | 15 | 181 | 3.2 | 6.4 | 0.00 | 0.00 | 0.00 | 79 | 1009.0 |
| 20260902112001 | 15 | 193 | 3.2 | 6.4 | 0.00 | 0.00 | 0.00 | 79 | 1009.0 |
| 20260902111501 | 15 | 144 | 4.8 | 6.4 | 0.00 | 0.00 | 0.00 | 80 | 1009.0 |
| 20260902111001 | 15 | 210 | 4.8 | 6.4 | 0.00 | 0.00 | 0.00 | 80 | 1009.2 |
| 20260902110001 | 15 | 202 | 4.8 | 6.4 | 0.00 | 0.00 | 0.00 | 79 | 1009.2 |
| 20260902105501 | 15 | 203 | 1.6 | 8.0 | 0.00 | 0.00 | 0.00 | 79 | 1009.5 |
| 20260902105001 | 15 | 159 | 3.2 | 8.0 | 0.00 | 0.00 | 0.00 | 78 | 1009.5 |
| 20260902104501 | 15 | 159 | 0.0 | 6.4 | 0.00 | 0.00 | 0.00 | 78 | 1009.5 |
| 20260902104001 | 15 | 160 | 0.0 | 8.0 | 0.00 | 0.00 | 0.00 | 77 | 1009.6 |
| 20260902103500 | 15 | 176 | 1.6 | 8.0 | 0.00 | 0.00 | 0.00 | 77 | 1009.6 |
| 20260902103000 | 15 | 173 | 4.8 | 8.0 | 0.00 | 0.00 | 0.00 | 77 | 1009.6 |
| 20260902102500 | 15 | 211 | 4.8 | 9.7 | 0.00 | 0.00 | 0.00 | 77 | 1009.7 |
| 20260902102000 | 15 | 218 | 4.8 | 11.3 | 0.00 | 0.00 | 0.00 | 78 | 1009.7 |
| 20260902101501 | 15 | 221 | 3.2 | 11.3 | 0.00 | 0.00 | 0.00 | 78 | 1009.7 |
| 20260902101001 | 15 | 200 | 6.4 | 6.4 | 0.00 | 0.00 | 0.00 | 79 | 1009.7 |
| 20260902100500 | 15 | 184 | 1.6 | 4.8 | 0.00 | 0.00 | 0.00 | 79 | 1009.7 |
| 20260902100000 | 15 | 185 | 1.6 | 6.4 | 0.00 | 0.00 | 0.00 | 80 | 1009.7 |
| 20260902095000 | 15 | 157 | 1.6 | 4.8 | 0.00 | 0.00 | 0.00 | 80 | 1009.9 |
| 20260902094501 | 15 | 183 | 1.6 | 4.8 | 0.00 | 0.00 | 0.00 | 80 | 1009.9 |
| 20260902093500 | 15 | 182 | 3.2 | 8.0 | 0.00 | 0.00 | 0.00 | 80 | 1010.0 |
| 20260902093000 | 15 | 161 | 4.8 | 8.0 | 0.00 | 0.00 | 0.00 | 81 | 1010.0 |
| 20260902092500 | 15 | 185 | 3.2 | 6.4 | 0.00 | 0.00 | 0.00 | 80 | 1010.0 |
| 20260902091500 | 15 | 186 | 3.2 | 8.0 | 0.00 | 0.00 | 0.00 | 80 | 1010.0 |
| 20260902091000 | 15 | 189 | 4.8 | 8.0 | 0.00 | 0.00 | 0.00 | 79 | 1010.1 |
| 20260902090500 | 15 | 190 | 1.6 | 6.4 | 0.00 | 0.00 | 0.00 | 79 | 1010.1 |
| 20260902090001 | 15 | 187 | 1.6 | 8.0 | 0.00 | 0.00 | 0.00 | 79 | 1010.1 |
| 20260902085501 | 15 | 201 | 1.6 | 8.0 | 0.00 | 0.00 | 0.00 | 79 | 1010.4 |
| 20260902084500 | 15 | 198 | 0.0 | 6.4 | 0.00 | 0.00 | 0.00 | 79 | 1010.4 |
| 20260902084001 | 15 | 185 | 3.2 | 9.7 | 0.00 | 0.00 | 0.00 | 79 | 1010.4 |
| 20260902083500 | 15 | 199 | 3.2 | 9.7 | 0.00 | 0.00 | 0.00 | 79 | 1010.4 |
| 20260902082500 | 15 | 182 | 0.0 | 3.2 | 0.00 | 0.00 | 0.00 | 80 | 1010.5 |
| 20260902081500 | 15 | 215 | 3.2 | 8.0 | 0.00 | 0.00 | 0.00 | 80 | 1010.5 |
| 20260902081000 | 15 | 192 | 3.2 | 9.7 | 0.00 | 0.00 | 0.00 | 80 | 1010.5 |
| 20260902080500 | 15 | 206 | 1.6 | 9.7 | 0.00 | 0.00 | 0.00 | 81 | 1010.5 |
| 20260902080000 | 15 | 199 | 4.8 | 4.8 | 0.00 | 0.00 | 0.00 | 82 | 1010.5 |
| 20260902075500 | 15 | 209 | 0.0 | 3.2 | 0.00 | 0.00 | 0.00 | 82 | 1010.6 |
| 20260902074500 | 15 | 199 | 0.0 | 4.8 | 0.00 | 0.00 | 0.00 | 84 | 1010.6 |
| 20260902074000 | 15 | 198 | 0.0 | 4.8 | 0.00 | 0.00 | 0.00 | 84 | 1010.8 |
| 20260902072500 | 15 | 196 | 0.0 | 0.0 | 0.00 | 0.00 | 0.00 | 83 | 1010.9 |
| 20260902071459 | 15 | 196 | 0.0 | 1.6 | 0.00 | 0.00 | 0.00 | 83 | 1010.9 |
| 20260902070500 | 15 | 196 | 1.6 | 9.7 | 0.00 | 0.00 | 0.00 | 82 | 1010.9 |
| 20260902065959 | 15 | 207 | 4.8 | 9.7 | 0.00 | 0.00 | 0.00 | 82 | 1010.9 |
| 20260902065459 | 15 | 188 | 1.6 | 8.0 | 0.00 | 0.00 | 0.00 | 82 | 1011.0 |
| 20260902064959 | 15 | 214 | 3.2 | 8.0 | 0.00 | 0.00 | 0.00 | 82 | 1011.0 |
| 20260902064459 | 15 | 220 | 4.8 | 8.0 | 0.00 | 0.00 | 0.00 | 82 | 1011.0 |
| 20260902063959 | 15 | 214 | 3.2 | 8.0 | 0.00 | 0.00 | 0.00 | 82 | 1011.1 |
| 20260902063459 | 15 | 196 | 3.2 | 9.7 | 0.00 | 0.00 | 0.00 | 82 | 1011.1 |
| 20260902062959 | 15 | 211 | 4.8 | 9.7 | 0.00 | 0.00 | 0.00 | 82 | 1011.1 |
| 20260902062459 | 15 | 189 | 6.4 | 8.0 | 0.00 | 0.00 | 0.00 | 82 | 1011.1 |
| 20260902061959 | 15 | 229 | 4.8 | 8.0 | 0.00 | 0.00 | 0.00 | 82 | 1011.1 |
| 20260902060959 | 15 | 207 | 3.2 | 8.0 | 0.00 | 0.00 | 0.00 | 82 | 1011.3 |
| 20260902060459 | 15 | 47 | 0.0 | 8.0 | 0.00 | 0.00 | 0.00 | 81 | 1011.3 |
| 20260902055959 | 16 | 212 | 4.8 | 8.0 | 0.00 | 0.00 | 0.00 | 81 | 1011.3 |
| 20260902055459 | 16 | 223 | 1.6 | 9.7 | 0.00 | 0.00 | 0.00 | 81 | 1011.5 |
| 20260902054959 | 16 | 202 | 1.6 | 9.7 | 0.00 | 0.00 | 0.00 | 79 | 1011.5 |
| 20260902054459 | 16 | 207 | 6.4 | 11.3 | 0.00 | 0.00 | 0.00 | 79 | 1011.5 |
| 20260902053459 | 16 | 211 | 6.4 | 9.7 | 0.00 | 0.00 | 0.00 | 78 | 1011.5 |
| 20260902052959 | 16 | 211 | 0.0 | 11.3 | 0.00 | 0.00 | 0.00 | 78 | 1011.6 |
| 20260902052459 | 16 | 265 | 6.4 | 11.3 | 0.00 | 0.00 | 0.00 | 78 | 1011.6 |
| 20260902051958 | 16 | 206 | 4.8 | 16.1 | 0.00 | 0.00 | 0.00 | 78 | 1011.6 |
| 20260902051458 | 16 | 214 | 4.8 | 16.1 | 0.00 | 0.00 | 0.00 | 78 | 1011.6 |
| 20260902050958 | 16 | 217 | 12.9 | 12.9 | 0.00 | 0.00 | 0.00 | 77 | 1011.6 |
| 20260902045959 | 16 | 190 | 8.0 | 9.7 | 0.00 | 0.00 | 0.00 | 77 | 1011.5 |
| 20260902045459 | 16 | 188 | 0.0 | 0.0 | 0.00 | 0.00 | 0.00 | 77 | 1011.6 |
| 20260902044959 | 16 | 188 | 0.0 | 0.0 | 0.00 | 0.00 | 0.00 | 77 | 1011.6 |
| 20260902043958 | 16 | 188 | 0.0 | 4.8 | 0.00 | 0.00 | 0.00 | 77 | 1011.5 |
| 20260902043458 | 16 | 188 | 3.2 | 8.0 | 0.00 | 0.00 | 0.00 | 77 | 1011.5 |
| 20260902042958 | 16 | 183 | 0.0 | 8.0 | 0.00 | 0.00 | 0.00 | 76 | 1011.6 |
| 20260902042458 | 16 | 190 | 3.2 | 6.4 | 0.00 | 0.00 | 0.00 | 76 | 1011.7 |
| 20260902040958 | 16 | 211 | 1.6 | 4.8 | 0.00 | 0.00 | 0.00 | 75 | 1011.6 |
| 20260902040458 | 16 | 210 | 0.0 | 4.8 | 0.00 | 0.00 | 0.00 | 75 | 1011.6 |
| 20260902035958 | 16 | 211 | 3.2 | 4.8 | 0.00 | 0.00 | 0.00 | 74 | 1011.6 |
| 20260902035458 | 16 | 256 | 0.0 | 0.0 | 0.00 | 0.00 | 0.00 | 74 | 1011.5 |
| 20260902034458 | 16 | 257 | 0.0 | 0.0 | 0.00 | 0.00 | 0.00 | 73 | 1011.5 |
| 20260902033958 | 16 | 257 | 0.0 | 0.0 | 0.00 | 0.00 | 0.00 | 72 | 1011.5 |
| 20260902033458 | 17 | 257 | 0.0 | 0.0 | 0.00 | 0.00 | 0.00 | 72 | 1011.5 |
| 20260902032958 | 17 | 257 | 0.0 | 0.0 | 0.00 | 0.00 | 0.00 | 72 | 1011.5 |
| 20260902032458 | 17 | 257 | 0.0 | 0.0 | 0.00 | 0.00 | 0.00 | 72 | 1011.4 |
| 20260902031958 | 17 | 260 | 0.0 | 0.0 | 0.00 | 0.00 | 0.00 | 71 | 1011.4 |
| 20260902031458 | 17 | 261 | 0.0 | 1.6 | 0.00 | 0.00 | 0.00 | 71 | 1011.4 |
| 20260902030957 | 17 | 262 | 0.0 | 3.2 | 0.00 | 0.00 | 0.00 | 70 | 1011.5 |
| 20260902030457 | 17 | 262 | 1.6 | 4.8 | 0.00 | 0.00 | 0.00 | 70 | 1011.5 |
| 20260902025957 | 17 | 232 | 0.0 | 4.8 | 0.00 | 0.00 | 0.00 | 70 | 1011.5 |
| 20260902025457 | 17 | 13 | 1.6 | 4.8 | 0.00 | 0.00 | 0.00 | 69 | 1011.6 |
| 20260902024958 | 17 | 337 | 1.6 | 4.8 | 0.00 | 0.00 | 0.00 | 69 | 1011.6 |
| 20260902023958 | 17 | 275 | 3.2 | 6.4 | 0.00 | 0.00 | 0.00 | 68 | 1011.4 |
| 20260902023458 | 17 | 344 | 3.2 | 6.4 | 0.00 | 0.00 | 0.00 | 67 | 1011.4 |
| 20260902022957 | 18 | 329 | 1.6 | 4.8 | 0.00 | 0.00 | 0.00 | 67 | 1011.4 |
| 20260902022457 | 18 | 5 | 1.6 | 4.8 | 0.00 | 0.00 | 0.00 | 66 | 1011.3 |
| 20260902021957 | 18 | 313 | 3.2 | 4.8 | 0.00 | 0.00 | 0.00 | 66 | 1011.3 |
| 20260902021457 | 18 | 19 | 1.6 | 8.0 | 0.00 | 0.00 | 0.00 | 66 | 1011.3 |
| 20260902020957 | 18 | 303 | 3.2 | 8.0 | 0.00 | 0.00 | 0.00 | 66 | 1011.4 |
| 20260902020457 | 18 | 221 | 8.0 | 9.7 | 0.00 | 0.00 | 0.00 | 65 | 1011.4 |
| 20260902015957 | 18 | 122 | 3.2 | 11.3 | 0.00 | 0.00 | 0.00 | 65 | 1011.4 |
| 20260902015457 | 18 | 360 | 3.2 | 11.3 | 0.00 | 0.00 | 0.00 | 64 | 1011.2 |
| 20260902014957 | 18 | 360 | 0.0 | 9.7 | 0.00 | 0.00 | 0.00 | 64 | 1011.2 |
| 20260902014457 | 18 | 360 | 1.6 | 8.0 | 0.00 | 0.00 | 0.00 | 63 | 1011.2 |
| 20260902013957 | 18 | 360 | 1.6 | 8.0 | 0.00 | 0.00 | 0.00 | 64 | 1011.1 |
| 20260902013457 | 18 | 360 | 3.2 | 8.0 | 0.00 | 0.00 | 0.00 | 65 | 1011.1 |
| 20260902012957 | 18 | 360 | 3.2 | 4.8 | 0.00 | 0.00 | 0.00 | 65 | 1011.1 |
| 20260902012457 | 18 | 360 | 1.6 | 4.8 | 0.00 | 0.00 | 0.00 | 66 | 1011.2 |
| 20260902011957 | 18 | 360 | 0.0 | 6.4 | 0.00 | 0.00 | 0.00 | 66 | 1011.2 |
| 20260902011457 | 18 | 360 | 3.2 | 6.4 | 0.00 | 0.00 | 0.00 | 66 | 1011.2 |
| 20260902010957 | 18 | 360 | 3.2 | 6.4 | 0.00 | 0.00 | 0.00 | 66 | 1011.1 |
| 20260902010457 | 18 | 360 | 3.2 | 6.4 | 0.00 | 0.00 | 0.00 | 66 | 1011.1 |
| 20260902005957 | 18 | 360 | 4.8 | 9.7 | 0.00 | 0.00 | 0.00 | 66 | 1011.1 |
| 20260902005457 | 18 | 360 | 0.0 | 9.7 | 0.00 | 0.00 | 0.00 | 66 | 1011.1 |
| 20260902004457 | 18 | 360 | 0.0 | 8.0 | 0.00 | 0.00 | 0.00 | 68 | 1011.1 |
| 20260902003957 | 18 | 360 | 4.8 | 8.0 | 0.00 | 0.00 | 0.00 | 68 | 1011.2 |
| 20260902003456 | 18 | 360 | 4.8 | 6.4 | 0.00 | 0.00 | 0.00 | 68 | 1011.2 |
| 20260902002956 | 18 | 167 | 1.6 | 6.4 | 0.00 | 0.00 | 0.00 | 69 | 1011.2 |
| 20260902002456 | 18 | 192 | 3.2 | 6.4 | 0.00 | 0.00 | 0.00 | 68 | 1011.2 |
| 20260902001957 | 18 | 355 | 3.2 | 12.9 | 0.00 | 0.00 | 0.00 | 68 | 1011.2 |
| 20260902001457 | 18 | 90 | 1.6 | 12.9 | 0.00 | 0.00 | 0.00 | 68 | 1011.2 |
| 20260902000957 | 18 | 334 | 0.0 | 9.7 | 0.00 | 0.00 | 0.00 | 68 | 1011.1 |
| 20260902000458 | 18 | 36 | 3.2 | 9.7 | 0.00 | 0.00 | 0.00 | 69 | 1011.1 |
| 20260901235957 | 18 | 171 | 1.6 | 6.4 | 0.00 | 0.00 | 0.00 | 70 | 1011.1 |
| 20260901234956 | 18 | 165 | 3.2 | 6.4 | 0.00 | 0.00 | 0.00 | 69 | 1011.0 |
| 20260901234456 | 18 | 331 | 0.0 | 4.8 | 0.00 | 0.00 | 0.00 | 69 | 1011.0 |
| 20260901233957 | 18 | 355 | 3.2 | 8.0 | 0.00 | 0.00 | 0.00 | 68 | 1011.1 |
| 20260901233457 | 18 | 224 | 3.2 | 8.0 | 0.00 | 0.00 | 0.00 | 68 | 1011.1 |
| 20260901232956 | 18 | 144 | 3.2 | 6.4 | 0.00 | 0.00 | 0.00 | 67 | 1011.1 |
| 20260901232456 | 18 | 336 | 3.2 | 9.7 | 0.00 | 0.00 | 0.00 | 66 | 1011.0 |
| 20260901231956 | 18 | 174 | 3.2 | 9.7 | 0.00 | 0.00 | 0.00 | 65 | 1011.0 |
| 20260901231457 | 18 | 55 | 1.6 | 6.4 | 0.00 | 0.00 | 0.00 | 63 | 1011.0 |
| 20260901230956 | 18 | 192 | 1.6 | 8.0 | 0.00 | 0.00 | 0.00 | 63 | 1011.0 |
| 20260901225956 | 18 | 227 | 1.6 | 6.4 | 0.00 | 0.00 | 0.00 | 64 | 1011.0 |
| 20260901225527 | 18 | 211 | 4.8 | 4.8 | 0.00 | 0.00 | 0.00 | 64 | 1011.0 |
| 20260901224456 | 18 | 304 | 0.0 | 4.8 | 0.00 | 0.00 | 0.00 | 63 | 1011.0 |
| 20260901223956 | 19 | 309 | 0.0 | 6.4 | 0.00 | 0.00 | 0.00 | 63 | 1011.0 |
| 20260901223456 | 19 | 126 | 0.0 | 8.0 | 0.00 | 0.00 | 0.00 | 63 | 1011.0 |
| 20260901222956 | 19 | 216 | 6.4 | 11.3 | 0.00 | 0.00 | 0.00 | 62 | 1011.0 |
| 20260901222456 | 19 | 248 | 3.2 | 11.3 | 0.00 | 0.00 | 0.00 | 61 | 1011.0 |
| 20260901221956 | 19 | 213 | 6.4 | 9.7 | 0.00 | 0.00 | 0.00 | 61 | 1011.0 |
| 20260901221456 | 20 | 360 | 1.6 | 9.7 | 0.00 | 0.00 | 0.00 | 60 | 1011.0 |
| 20260901220956 | 19 | 220 | 3.2 | 11.3 | 0.00 | 0.00 | 0.00 | 60 | 1011.0 |
| 20260901220457 | 19 | 329 | 1.6 | 11.3 | 0.00 | 0.00 | 0.00 | 60 | 1011.0 |
| 20260901215455 | 20 | 216 | 3.2 | 9.7 | 0.00 | 0.00 | 0.00 | 60 | 1010.9 |
| 20260901214455 | 20 | 190 | 0.0 | 9.7 | 0.00 | 0.00 | 0.00 | 61 | 1010.9 |
| 20260901213955 | 20 | 193 | 4.8 | 9.7 | 0.00 | 0.00 | 0.00 | 60 | 1010.7 |
| 20260901213455 | 20 | 213 | 6.4 | 6.4 | 0.00 | 0.00 | 0.00 | 60 | 1010.7 |
| 20260901212956 | 20 | 254 | 0.0 | 6.4 | 0.00 | 0.00 | 0.00 | 60 | 1010.7 |
| 20260901212456 | 20 | 320 | 0.0 | 6.4 | 0.00 | 0.00 | 0.00 | 60 | 1010.9 |
| 20260901211956 | 20 | 207 | 4.8 | 6.4 | 0.00 | 0.00 | 0.00 | 60 | 1010.9 |
| 20260901211456 | 20 | 295 | 1.6 | 12.9 | 0.00 | 0.00 | 0.00 | 61 | 1010.9 |